CEB212 RPLK-RPLL

Flight info

Callsign CEB212
Flight time 0h 42m
Altitude 18000
Route NGA2D NGA W9 AKDAP AKDAP7R
Aircraft A20N/M-SDE2E3FGHIRWXY/LB1

Departure

Time 2026-04-30 13:55
Airport Bicol International Airport (RPLK)

Arrival

Time 2026-04-30 14:37
Airport Ninoy Aquino International Airport (RPLL)
Time Latitude Longitude Altitude Speed Heading
2026-04-30 13:42 13.11195 123.68051 302 ft 0 kts 137°
2026-04-30 13:45 13.11203 123.68044 302 ft 2 kts 138°
2026-04-30 13:45 13.11215 123.68033 301 ft 2 kts 141°
2026-04-30 13:45 13.11228 123.68023 300 ft 2 kts 146°
2026-04-30 13:46 13.11242 123.68014 302 ft 2 kts 157°
2026-04-30 13:46 13.11258 123.68010 299 ft 2 kts 192°
2026-04-30 13:46 13.11269 123.68016 301 ft 1 kts 228°
2026-04-30 13:46 13.11269 123.68017 300 ft 0 kts 229°
2026-04-30 13:49 13.11264 123.68011 301 ft 2 kts 226°
2026-04-30 13:49 13.11253 123.68000 302 ft 2 kts 225°
2026-04-30 13:50 13.11243 123.67989 302 ft 3 kts 228°
2026-04-30 13:50 13.11229 123.67948 302 ft 7 kts 269°
2026-04-30 13:50 13.11291 123.67876 302 ft 16 kts 317°
2026-04-30 13:51 13.11286 123.67786 303 ft 15 kts 226°
2026-04-30 13:51 13.11203 123.67697 305 ft 18 kts 226°
2026-04-30 13:51 13.11118 123.67604 303 ft 17 kts 230°
2026-04-30 13:51 13.11039 123.67515 303 ft 18 kts 227°
2026-04-30 13:52 13.10934 123.67400 300 ft 26 kts 224°
2026-04-30 13:52 13.10803 123.67275 301 ft 25 kts 228°
2026-04-30 13:52 13.10689 123.67136 301 ft 25 kts 233°
2026-04-30 13:52 13.10572 123.67053 300 ft 19 kts 195°
2026-04-30 13:53 13.10483 123.66990 301 ft 15 kts 271°
2026-04-30 13:53 13.10541 123.66958 304 ft 2 kts 39°
2026-04-30 13:53 13.10561 123.66989 302 ft 6 kts 48°
2026-04-30 13:53 13.10578 123.67007 303 ft 0 kts 46°
2026-04-30 13:54 13.10593 123.67023 301 ft 21 kts 46°
2026-04-30 13:54 13.10861 123.67317 301 ft 89 kts 47°
2026-04-30 13:54 13.11415 123.67927 302 ft 143 kts 47°
2026-04-30 13:54 13.12115 123.68716 667 ft 151 kts 47°
2026-04-30 13:55 13.12839 123.69517 1180 ft 147 kts 49°
2026-04-30 13:55 13.13513 123.70252 1806 ft 144 kts 49°
2026-04-30 13:55 13.14260 123.71080 2134 ft 178 kts 49°
2026-04-30 13:55 13.15201 123.72120 2405 ft 216 kts 49°
2026-04-30 13:56 13.16278 123.73310 2815 ft 242 kts 49°
2026-04-30 13:56 13.17458 123.74611 3522 ft 251 kts 49°
2026-04-30 13:56 13.18647 123.75921 4392 ft 253 kts 49°
2026-04-30 13:56 13.19855 123.77251 5241 ft 256 kts 48°
2026-04-30 13:57 13.21077 123.78591 5979 ft 262 kts 46°
2026-04-30 13:57 13.22524 123.79773 6726 ft 269 kts 31°
2026-04-30 13:57 13.24314 123.80363 7430 ft 278 kts
2026-04-30 13:57 13.26267 123.80156 8183 ft 287 kts 347°
2026-04-30 13:58 13.28183 123.79516 8954 ft 292 kts 342°
2026-04-30 13:58 13.31386 123.78303 10169 ft 300 kts 342°
2026-04-30 13:58 13.34089 123.77292 10611 ft 325 kts 342°
2026-04-30 13:59 13.36279 123.76483 10863 ft 344 kts 342°
2026-04-30 13:59 13.37799 123.75924 11032 ft 355 kts 342°
2026-04-30 13:59 13.40993 123.74751 11486 ft 371 kts 342°
2026-04-30 13:59 13.43396 123.73731 12030 ft 376 kts 333°
2026-04-30 14:00 13.45504 123.72121 12591 ft 383 kts 315°
2026-04-30 14:00 13.47626 123.68106 13574 ft 391 kts 288°
2026-04-30 14:00 13.48360 123.65388 14107 ft 395 kts 285°
2026-04-30 14:01 13.49041 123.62665 14605 ft 399 kts 285°
2026-04-30 14:01 13.49739 123.59886 15122 ft 403 kts 285°
2026-04-30 14:01 13.50446 123.57104 15636 ft 406 kts 285°
2026-04-30 14:01 13.51171 123.54274 16140 ft 410 kts 285°
2026-04-30 14:02 13.51905 123.51428 16678 ft 413 kts 285°
2026-04-30 14:02 13.52645 123.48560 17147 ft 417 kts 285°
2026-04-30 14:02 13.53394 123.45664 17615 ft 420 kts 285°
2026-04-30 14:02 13.54146 123.42755 17929 ft 422 kts 285°
2026-04-30 14:03 13.54893 123.39862 17988 ft 423 kts 285°
2026-04-30 14:03 13.55648 123.36940 17991 ft 424 kts 285°
2026-04-30 14:03 13.56408 123.34001 17990 ft 425 kts 285°
2026-04-30 14:03 13.57168 123.31056 17990 ft 425 kts 285°
2026-04-30 14:04 13.57947 123.28117 17991 ft 425 kts 288°
2026-04-30 14:04 13.58962 123.25294 17988 ft 424 kts 293°
2026-04-30 14:04 13.60166 123.22533 17988 ft 424 kts 296°
2026-04-30 14:04 13.61459 123.19826 17988 ft 424 kts 297°
2026-04-30 14:05 13.62804 123.17109 17988 ft 424 kts 298°
2026-04-30 14:05 13.64148 123.14405 17985 ft 423 kts 298°
2026-04-30 14:05 13.65467 123.11729 17985 ft 423 kts 297°
2026-04-30 14:05 13.66793 123.09005 17985 ft 423 kts 297°
2026-04-30 14:06 13.68092 123.06311 17983 ft 423 kts 297°
2026-04-30 14:06 13.70692 123.00868 17988 ft 423 kts 297°
2026-04-30 14:07 13.73273 122.95446 17988 ft 423 kts 297°
2026-04-30 14:07 13.74575 122.92709 17984 ft 423 kts 297°
2026-04-30 14:07 13.75853 122.90022 17985 ft 423 kts 297°
2026-04-30 14:08 13.78436 122.84593 17985 ft 423 kts 297°
2026-04-30 14:08 13.79736 122.81861 17985 ft 423 kts 297°
2026-04-30 14:08 13.82325 122.76416 17985 ft 423 kts 297°
2026-04-30 14:09 13.83602 122.73726 17982 ft 423 kts 296°
2026-04-30 14:09 13.84900 122.70995 17983 ft 423 kts 296°
2026-04-30 14:09 13.87472 122.65575 17985 ft 423 kts 296°
2026-04-30 14:10 13.88769 122.62842 17989 ft 423 kts 296°
2026-04-30 14:10 13.90050 122.60143 17985 ft 422 kts 296°
2026-04-30 14:10 13.91342 122.57417 17988 ft 421 kts 296°
2026-04-30 14:10 13.92635 122.54689 17836 ft 435 kts 296°
2026-04-30 14:11 13.93982 122.51846 17571 ft 445 kts 296°
2026-04-30 14:11 13.95332 122.48997 17327 ft 445 kts 296°
2026-04-30 14:11 13.96691 122.46126 17076 ft 443 kts 296°
2026-04-30 14:11 13.98039 122.43277 16831 ft 441 kts 296°
2026-04-30 14:12 13.99370 122.40463 16588 ft 439 kts 296°
2026-04-30 14:12 14.00713 122.37624 16349 ft 438 kts 296°
2026-04-30 14:12 14.02029 122.34839 16104 ft 436 kts 296°
2026-04-30 14:12 14.03365 122.32012 15998 ft 435 kts 296°
2026-04-30 14:13 14.04684 122.29221 15979 ft 435 kts 296°
2026-04-30 14:13 14.06005 122.26425 15982 ft 434 kts 296°
2026-04-30 14:13 14.07325 122.23629 15983 ft 434 kts 296°
2026-04-30 14:13 14.08644 122.20833 15981 ft 434 kts 296°
2026-04-30 14:14 14.09945 122.18077 15982 ft 434 kts 296°
2026-04-30 14:14 14.11265 122.15278 15982 ft 434 kts 296°
2026-04-30 14:14 14.12587 122.12473 15981 ft 434 kts 296°
2026-04-30 14:14 14.13908 122.09670 15982 ft 434 kts 296°
2026-04-30 14:15 14.15229 122.06866 15983 ft 434 kts 296°
2026-04-30 14:15 14.16534 122.04095 15983 ft 434 kts 296°
2026-04-30 14:15 14.17869 122.01259 15984 ft 434 kts 296°
2026-04-30 14:15 14.19163 121.98510 15985 ft 434 kts 296°
2026-04-30 14:16 14.20488 121.95692 15982 ft 434 kts 296°
2026-04-30 14:16 14.21794 121.92906 15982 ft 435 kts 296°
2026-04-30 14:16 14.23051 121.90064 15987 ft 435 kts 294°
2026-04-30 14:16 14.24281 121.87199 15984 ft 434 kts 294°
2026-04-30 14:17 14.25500 121.84349 15981 ft 434 kts 294°
2026-04-30 14:17 14.26708 121.81526 15982 ft 433 kts 294°
2026-04-30 14:17 14.27929 121.78674 15994 ft 435 kts 294°
2026-04-30 14:17 14.29159 121.75803 15981 ft 435 kts 294°
2026-04-30 14:18 14.30382 121.72946 15993 ft 437 kts 294°
2026-04-30 14:18 14.31602 121.70099 15993 ft 437 kts 294°
2026-04-30 14:18 14.34045 121.64391 15976 ft 436 kts 294°
2026-04-30 14:19 14.36496 121.58659 15990 ft 436 kts 294°
2026-04-30 14:19 14.37710 121.55819 15974 ft 436 kts 294°
2026-04-30 14:19 14.38936 121.52951 15989 ft 438 kts 294°
2026-04-30 14:20 14.40173 121.50055 15977 ft 438 kts 294°
2026-04-30 14:20 14.41386 121.47217 15982 ft 436 kts 294°
2026-04-30 14:20 14.43828 121.41495 15679 ft 433 kts 294°
2026-04-30 14:21 14.45042 121.38647 15340 ft 432 kts 294°
2026-04-30 14:21 14.46240 121.35836 14625 ft 429 kts 294°
2026-04-30 14:21 14.48520 121.30221 13150 ft 422 kts 285°
2026-04-30 14:22 14.48818 121.27307 12508 ft 416 kts 266°
2026-04-30 14:22 14.46746 121.21866 11160 ft 403 kts 235°
2026-04-30 14:22 14.45189 121.19493 10429 ft 401 kts 235°
2026-04-30 14:23 14.42216 121.14672 9330 ft 383 kts 238°
2026-04-30 14:23 14.39647 121.10218 8742 ft 342 kts 239°
2026-04-30 14:24 14.37378 121.06191 8231 ft 307 kts 239°
2026-04-30 14:24 14.36342 121.04337 8022 ft 291 kts 239°
2026-04-30 14:25 14.34391 121.00841 7340 ft 277 kts 240°
2026-04-30 14:25 14.32466 120.97385 6621 ft 276 kts 240°
2026-04-30 14:26 14.30575 120.93986 5989 ft 272 kts 240°
2026-04-30 14:26 14.29632 120.92293 5649 ft 270 kts 240°
2026-04-30 14:26 14.27773 120.88954 5056 ft 266 kts 240°
2026-04-30 14:27 14.26877 120.87340 5028 ft 250 kts 240°
2026-04-30 14:27 14.26027 120.85808 5033 ft 243 kts 239°
2026-04-30 14:27 14.25228 120.84289 5022 ft 244 kts 247°
2026-04-30 14:28 14.25205 120.80908 5018 ft 239 kts 297°
2026-04-30 14:28 14.26013 120.79431 5016 ft 238 kts 305°
2026-04-30 14:28 14.26920 120.78011 4939 ft 238 kts 307°
2026-04-30 14:28 14.27853 120.76592 4817 ft 238 kts 307°
2026-04-30 14:29 14.29722 120.73758 4575 ft 237 kts 307°
2026-04-30 14:29 14.31682 120.71990 4369 ft 220 kts 341°
2026-04-30 14:30 14.35455 120.74101 3967 ft 204 kts 52°
2026-04-30 14:31 14.37150 120.76458 3724 ft 203 kts 61°
2026-04-30 14:31 14.38513 120.78996 3344 ft 196 kts 63°
2026-04-30 14:31 14.39134 120.80171 3108 ft 188 kts 63°
2026-04-30 14:32 14.40401 120.82556 3003 ft 190 kts 63°
2026-04-30 14:32 14.41042 120.83748 3001 ft 189 kts 62°
2026-04-30 14:32 14.41686 120.84939 3000 ft 189 kts 62°
2026-04-30 14:33 14.42327 120.86125 2979 ft 189 kts 62°
2026-04-30 14:33 14.43594 120.88479 2525 ft 183 kts 63°
2026-04-30 14:33 14.44194 120.89596 2277 ft 173 kts 60°
2026-04-30 14:34 14.44764 120.90656 2048 ft 163 kts 61°
2026-04-30 14:34 14.45287 120.91631 1855 ft 149 kts 62°
2026-04-30 14:34 14.45764 120.92518 1662 ft 137 kts 63°
2026-04-30 14:34 14.46223 120.93370 1491 ft 134 kts 63°
2026-04-30 14:35 14.46971 120.94759 1221 ft 133 kts 63°
2026-04-30 14:35 14.47572 120.95878 999 ft 134 kts 63°
2026-04-30 14:35 14.48025 120.96719 834 ft 133 kts 62°
2026-04-30 14:36 14.48461 120.97568 709 ft 133 kts 63°
2026-04-30 14:36 14.48905 120.98401 564 ft 133 kts 62°
2026-04-30 14:36 14.49364 120.99227 383 ft 133 kts 63°
2026-04-30 14:36 14.49813 121.00041 204 ft 131 kts 61°
2026-04-30 14:37 14.50258 121.00858 70 ft 123 kts 63°
2026-04-30 14:37 14.50587 121.01447 67 ft 55 kts 60°
2026-04-30 14:37 14.50762 121.01713 66 ft 42 kts 38°
2026-04-30 14:37 14.50969 121.01882 72 ft 30 kts 42°
2026-04-30 14:38 14.51107 121.01846 70 ft 24 kts 315°
2026-04-30 14:38 14.51230 121.01718 70 ft 26 kts 315°
2026-04-30 14:38 14.51348 121.01595 71 ft 19 kts 319°
2026-04-30 14:38 14.51413 121.01575 67 ft 10 kts 41°
2026-04-30 14:39 14.51471 121.01621 67 ft 12 kts 36°
2026-04-30 14:39 14.51533 121.01683 69 ft 14 kts 46°
2026-04-30 14:39 14.51599 121.01749 64 ft 5 kts 44°
2026-04-30 14:40 14.51654 121.01784 72 ft 5 kts
2026-04-30 14:40 14.51690 121.01769 67 ft 4 kts 304°
2026-04-30 14:40 14.51689 121.01756 69 ft 1 kts 251°
2026-04-30 14:40 14.51688 121.01755 69 ft 0 kts 242°
2026-04-30 14:41 14.51682 121.01751 70 ft 3 kts 217°
2026-04-30 14:41 14.51672 121.01743 66 ft 1 kts 221°
2026-04-30 14:41 14.51661 121.01732 70 ft 3 kts 224°
2026-04-30 14:41 14.51651 121.01722 67 ft 1 kts 224°
2026-04-30 14:42 14.51650 121.01722 67 ft 0 kts 224°